Rbgn^[z[y[W
メイン
   新天体発見情報
     Comet C/2017 E2 (XuYi)
投稿するにはまず登録を

スレッド表示 | 古いものから 前のトピック | 次のトピック | 下へ
投稿者 スレッド
佐藤裕久
投稿日時: 2017-3-9 23:59
モデレータ
登録日: 2005-6-12
居住地: 日本
投稿: 1797
オンライン
Comet C/2017 E2 (XuYi)

3月1日、H. B. Zhao, B. Li, G. Zhaori, R. Q. HongとL. F. Hui (測定、Zhao, Li, H. LuとG. Zhaori)
は、紫金山天文台XuYi観測所の 1.04-m f/1.8 Schmidt望遠鏡で得た画像から小惑星状天体が見つかり、
彗星活動を示すことがわかった。
この天体は、3月3.3日UT、LINEAR サーベイのコースに、ニューメキシコ州、White Sands Missile Rangeに
あるSpace Surveillance Telescope,Atom Siteの3.5-m f/1 反射望遠鏡で得たCCD画像に見つかった。
小惑星センターのPCCP webpageに公表後、W. H. Ryanと E. V. Ryanは、3月5.3日、Magdalena Ridge
天文台の2.4-m f/8.9 反射望遠鏡で得たG-バンドのフォローアップ画像からこの天体はp.a.およそ300°に
尾がある19.4-19.6等の彗星に見えた。

発見位置は次のとおり、

     2017 UT             R.A. (2000) Decl.       Mag.   Observer
     Mar.  1.82132   13 32 26.43   + 7 10 06.8   19.7   Zhao
           1.84135   13 32 25.01   + 7 10 04.9   19.5     "
           1.86138   13 32 23.57   + 7 10 02.2   19.5     "

暫定放物線軌道要素と位置推算表は次のとおり、

Orbital elements:
    C/2017 E2 (XuYi)
T 2016 July 17.63572 TT                                 MPCW
q   1.5288688            (2000.0)            P               Q
                   Peri.   72.91899     +0.15647102     -0.96291491
                   Node    14.89459     +0.18353338     -0.19031777
e   1.0            Incl.   58.77207     +0.97048046     +0.19124336
>From 40 observations 2017 Mar. 1-5.

Ephemeris:
    C/2017 E2 (XuYi)
Date    TT    R. A. (2000) Decl.     Delta      r     Elong.  Phase   m1
2017 02 05    13 54 36.1 +08 01 41   2.5082  3.0098   111.3    17.8  19.3
...
2017 02 20    13 42 58.1 +07 27 38   2.4488  3.1574   128.2    14.2  19.4
...
2017 02 28    13 34 32.7 +07 13 17   2.4341  3.2360   137.7    11.9  19.5
...
2017 03 06    13 27 23.9 +07 02 56   2.4336  3.2949   144.9    10.0  19.6
2017 03 07    13 26 09.1 +07 01 11   2.4345  3.3047   146.1     9.6  19.6
2017 03 08    13 24 53.3 +06 59 26   2.4357  3.3145   147.3     9.3  19.6
...
2017 03 14    13 17 04.2 +06 48 23   2.4494  3.3733   154.4     7.3  19.7
...
2017 03 22    13 06 13.8 +06 31 43   2.4860  3.4516   163.1     4.8  19.9
...
2017 04 06    12 46 11.6 +05 51 21   2.6148  3.5979   167.3     3.5  20.1

(CBET 4370、MPEC 2017-E57)

スレッド表示 | 古いものから 前のトピック | 次のトピック | トップ

投稿するにはまず登録を
 
© 1999-2013 Tsutomu Seki.